Date String (YYYY-MM-DD hh:mm:ss) UTC,Instrument flags,Ambient pressure (hPa),Sample flow (lpm),Bypass flow (lpm),Sample temperature (°C),Ambient temperature (°C),ASC tube jacket temperature (°C),LED temperature (°C),Box temperature (°C),Sample RH (%),Span deviation,Mass concentration (μg/m³),Mass concentration (μg/m³),Mass concentration (μg/m³)
DateTimeUTC,F1_M11,P_M11,Q1_M11,Q2_M11,T1_M11,T2_M11,T3_M11,T4_M11,T5_M11,U1_M11,ZSPAN_M11,X0_M11,X2_M11,X1_M11
2022-03-28 21:00:00,,0817.0,5.01,0.00,30.6,29.9,00.0,39.5,32.4,03.4,0000.0,0008.73,0002.08,0000.89
2022-03-28 21:01:00,,0817.1,4.99,0.00,30.6,29.5,00.0,39.5,32.3,03.6,0000.0,0007.75,0002.01,0000.88
2022-03-28 21:02:00,,0816.8,5.00,0.00,30.6,27.4,00.0,39.5,31.9,03.7,0000.0,0007.62,0001.95,0000.86
2022-03-28 21:03:00,,0816.7,5.01,0.00,30.4,26.5,00.0,39.4,31.7,03.8,0000.0,0007.97,0001.99,0000.86
2022-03-28 21:04:00,,0816.7,5.00,0.00,30.4,26.8,00.0,39.4,31.7,03.7,0000.0,0008.31,0002.04,0000.85
2022-03-28 21:05:00,,0816.7,4.98,0.00,30.3,27.2,00.0,39.3,31.8,03.8,0000.0,0011.07,0002.18,0000.84
2022-03-28 21:06:00,,0816.7,5.02,0.00,30.2,27.6,00.0,39.3,31.8,03.9,0000.0,0011.00,0002.17,0000.83
2022-03-28 21:07:00,,0816.7,4.99,0.00,30.2,27.9,00.0,39.3,31.8,04.1,0000.0,0010.44,0002.09,0000.82
2022-03-28 21:08:00,,0816.7,5.00,0.00,30.2,28.2,00.0,39.2,31.8,04.0,0000.0,0010.47,0002.11,0000.83
2022-03-28 21:09:00,,0816.7,5.02,0.00,30.2,28.5,00.0,39.2,31.8,04.1,0000.0,0010.40,0002.13,0000.84
2022-03-28 21:10:00,,0816.6,4.99,0.00,30.2,28.7,00.0,39.2,31.9,03.9,0000.0,0009.56,0001.86,0000.82
2022-03-28 21:11:00,,0816.6,5.02,0.00,30.2,28.9,00.0,39.2,31.9,03.9,0000.0,0009.96,0001.89,0000.82
2022-03-28 21:12:00,,0816.7,4.99,0.00,30.2,29.0,00.0,39.2,31.9,04.1,0000.0,0010.34,0001.92,0000.81
2022-03-28 21:13:00,,0816.6,5.00,0.00,30.2,29.1,00.0,39.2,32.0,04.2,0000.0,0010.57,0001.99,0000.82
2022-03-28 21:14:00,,0816.5,4.99,0.00,30.3,29.2,00.0,39.2,32.0,04.2,0000.0,0011.64,0002.21,0000.83
2022-03-28 21:15:00,,0816.6,5.01,0.00,30.3,29.3,00.0,39.2,32.0,04.0,0000.0,0011.36,0002.20,0000.83
2022-03-28 21:16:00,,0816.5,4.99,0.00,30.3,29.3,00.0,39.2,32.0,03.9,0000.0,0008.83,0002.16,0000.84
2022-03-28 21:17:00,,0816.6,5.01,0.00,30.3,29.4,00.0,39.2,32.1,04.0,0000.0,0008.29,0002.19,0000.83
2022-03-28 21:18:00,,0816.6,4.99,0.00,30.4,29.5,00.0,39.2,32.1,04.3,0000.0,0009.48,0002.27,0000.82
2022-03-28 21:19:00,,0816.5,5.01,0.00,30.4,29.5,00.0,39.3,32.1,04.4,0000.0,0010.99,0002.39,0000.82
2022-03-28 21:20:00,,0816.5,4.98,0.00,30.4,29.5,00.0,39.3,32.1,04.3,0000.0,0012.64,0002.78,0000.82
2022-03-28 21:21:00,,0816.6,5.01,0.00,30.4,29.6,00.0,39.3,32.2,04.2,0000.0,0013.35,0002.92,0000.81
2022-03-28 21:22:00,,0816.5,5.00,0.00,30.4,29.6,00.0,39.3,32.2,04.2,0000.0,0013.34,0002.87,0000.81
2022-03-28 21:23:00,,0816.5,4.98,0.00,30.5,29.6,00.0,39.3,32.2,04.3,0000.0,0013.16,0002.82,0000.80
2022-03-28 21:24:00,,0816.5,5.01,0.00,30.5,29.7,00.0,39.3,32.2,04.0,0000.0,0013.06,0002.77,0000.78
2022-03-28 21:25:00,,0816.4,4.99,0.00,30.5,29.7,00.0,39.4,32.3,04.1,0000.0,0011.74,0002.52,0000.77
2022-03-28 21:26:00,,0816.4,5.00,0.00,30.5,29.7,00.0,39.4,32.3,04.2,0000.0,0011.76,0002.51,0000.76
2022-03-28 21:27:00,,0816.5,5.01,0.00,30.5,29.2,00.0,39.4,32.2,04.2,0000.0,0011.69,0002.47,0000.75
2022-03-28 21:28:00,,0816.4,5.00,0.00,30.4,26.9,00.0,39.4,31.8,04.4,0000.0,0011.44,0002.31,0000.74
2022-03-28 21:29:00,,0816.4,4.99,0.00,30.3,25.8,00.0,39.4,31.4,04.3,0000.0,0010.42,0002.19,0000.73
2022-03-28 21:30:00,,0816.3,5.01,0.00,30.2,26.1,00.0,39.3,31.4,04.3,0000.0,0008.80,0002.08,0000.72
2022-03-28 21:31:00,,0816.4,5.00,0.00,30.1,26.6,00.0,39.2,31.5,04.1,0000.0,0006.85,0001.68,0000.69
2022-03-28 21:32:00,,0816.4,4.99,0.00,30.1,27.1,00.0,39.2,31.6,04.1,0000.0,0004.94,0001.44,0000.68
2022-03-28 21:33:00,,0816.4,5.01,0.00,30.1,27.5,00.0,39.1,31.6,04.2,0000.0,0003.92,0001.43,0000.68
2022-03-28 21:34:00,,0816.3,5.00,0.00,30.0,27.9,00.0,39.1,31.7,04.2,0000.0,0008.87,0002.02,0000.70
2022-03-28 21:35:00,,0816.4,5.02,0.00,30.0,28.1,00.0,39.1,31.7,04.2,0000.0,0012.02,0002.44,0000.73
2022-03-28 21:36:00,,0816.4,4.98,0.00,30.0,28.4,00.0,39.1,31.7,04.0,0000.0,0011.87,0002.41,0000.73
2022-03-28 21:37:00,,0816.3,5.00,0.00,30.1,28.6,00.0,39.1,31.8,04.1,0000.0,0011.73,0002.36,0000.74
2022-03-28 21:38:00,,0816.4,5.01,0.00,30.1,28.7,00.0,39.1,31.8,04.3,0000.0,0011.68,0002.31,0000.74
2022-03-28 21:39:00,,0816.3,4.98,0.00,30.1,28.9,00.0,39.1,31.9,04.5,0000.0,0011.75,0002.36,0000.75
2022-03-28 21:40:00,,0816.3,5.01,0.00,30.2,29.0,00.0,39.1,31.9,04.3,0000.0,0011.75,0002.38,0000.76
2022-03-28 21:41:00,,0816.3,4.99,0.00,30.2,29.1,00.0,39.1,31.9,04.1,0000.0,0011.77,0002.38,0000.77
2022-03-28 21:42:00,,0816.2,5.01,0.00,30.2,29.2,00.0,39.1,32.0,04.2,0000.0,0011.90,0002.36,0000.79
2022-03-28 21:43:00,,0816.3,4.99,0.00,30.2,29.2,00.0,39.1,32.0,04.2,0000.0,0012.06,0002.43,0000.81
2022-03-28 21:44:00,,0816.2,5.01,0.00,30.3,29.3,00.0,39.1,32.0,04.3,0000.0,0011.92,0002.37,0000.81
2022-03-28 21:45:00,,0816.2,4.99,0.00,30.3,29.4,00.0,39.1,32.0,04.3,0000.0,0007.65,0001.79,0000.79
2022-03-28 21:46:00,,0816.1,5.00,0.00,30.3,29.4,00.0,39.2,32.1,04.4,0000.0,0003.11,0001.35,0000.76
2022-03-28 21:47:00,,0816.1,5.02,0.00,30.3,29.5,00.0,39.2,32.1,04.1,0000.0,0003.17,0001.33,0000.76
2022-03-28 21:48:00,,0816.1,4.98,0.00,30.4,29.5,00.0,39.2,32.1,04.3,0000.0,0003.24,0001.34,0000.77
2022-03-28 21:49:00,,0816.1,5.01,0.00,30.4,29.5,00.0,39.2,32.1,04.3,0000.0,0003.22,0001.37,0000.78
2022-03-28 21:50:00,,0816.1,4.99,0.00,30.4,29.6,00.0,39.2,32.2,04.5,0000.0,0003.21,0001.36,0000.78
2022-03-28 21:51:00,,0816.3,5.01,0.00,30.4,29.6,00.0,39.2,32.2,04.4,0000.0,0003.31,0001.37,0000.78
2022-03-28 21:52:00,,0816.1,4.99,0.00,30.5,29.2,00.0,39.3,32.1,04.4,0000.0,0003.22,0001.35,0000.78
2022-03-28 21:53:00,,0816.2,5.00,0.00,30.4,26.9,00.0,39.3,31.7,04.3,0000.0,0002.77,0001.30,0000.77
2022-03-28 21:54:00,,0816.2,5.01,0.00,30.2,25.6,00.0,39.2,31.4,04.5,0000.0,0002.39,0001.23,0000.77
2022-03-28 21:55:00,,0816.0,5.00,0.00,30.1,25.9,00.0,39.2,31.4,04.4,0000.0,0002.42,0001.24,0000.77
2022-03-28 21:56:00,,0816.5,5.00,0.00,30.0,26.4,00.0,39.1,31.4,04.5,0000.0,0002.94,0001.27,0000.79
2022-03-28 21:57:00,,0816.0,5.01,0.00,30.0,26.9,00.0,39.1,31.5,04.6,0000.0,0003.22,0001.26,0000.79
2022-03-28 21:58:00,,0815.9,4.99,0.00,30.0,27.3,00.0,39.0,31.6,04.5,0000.0,0003.34,0001.31,0000.81
2022-03-28 21:59:00,,0816.0,4.99,0.00,30.0,27.7,00.0,39.0,31.6,04.1,0000.0,0003.34,0001.33,0000.81
